Вернуться в каталог

THORAD DELTA 1 DEB

АктивенSSO
NORAD 8790·DEBRIS·🇺🇸 United States

Запущен Nov 15, 1974 с Vandenberg Space Force Base

Loading…

Ближайшие Пролёты (ближайшие 24 часа)

TLE

СвежийSource: Space-Track

Эпоха: Sep 12, 2026, 23:58 UTC

1 08790U 74089DS  26255.99880356 -.00000012  00000-0  20224-3 0  9997
2 08790 101.8704 264.3418 0036623 272.8394 112.7779 12.59114930379671

Отслеживайте THORAD DELTA 1 DEB в реальном времени с AllMySat

Download on the App Store